Regional Weather Roundup
Issued by NWS

Home | Current Version | Previous Version | Graphics & Text | Print | Product List | Glossary Off
Versions: 1 2 3 4 5 6 7 8 9 10 11 12 13 14 15 16 17 18 19 20 21 22 23 24 25 26 27 28 29 30 31 32 33 34 35 36 37 38 39 40 41 42 43 44 45 46 47 48 49 50

000
ASUS43 KLSX 060510
RWRMO

WEATHER SUMMARY FOR MISSOURI
NATIONAL WEATHER SERVICE SPRINGFIELD MO
1100 PM CST FRI FEB 05 2016

NOTE: "FAIR" INDICATES FEW OR NO CLOUDS BELOW 12,000 FEET WITH NO
       SIGNIFICANT WEATHER AND/OR OBSTRUCTIONS TO VISIBILITY.
       CURRENT SKY AND/OR WEATHER CONDITIONS ARE NOT AVAILABLE FOR
       CHILLICOTHE AND FARMINGTON.

MOZ001>031-035>038-043-044-053-054-060600-
...NORTHERN AND WESTERN MISSOURI...

CITY           SKY/WX    TMP DP  RH WIND       PRES   REMARKS
KANSAS CTY INT CLOUDY    34  25  69 S5        30.27S WCI  30
KANSAS C DTWN  CLOUDY    37  26  64 E6        30.28S
LEE`S SUMMIT   CLOUDY    37  24  59 CALM      30.27F
ST JOSEPH      CLOUDY    32  24  72 S5        30.27F WCI  27
CHILLICOTHE      N/A     28  23  81 CALM      30.30S
KIRKSVILLE     CLOUDY    31  22  69 S6        30.29F WCI  25

$$
MOZ066>068-077>081-088>096-101>105-060600-
...SOUTHWEST MISSOURI...

CITY           SKY/WX    TMP DP  RH WIND       PRES   REMARKS
SPRINGFIELD    CLOUDY    36  20  52 S8        30.28S WCI  30
JOPLIN         CLOUDY    43  18  36 S9        30.29S

$$
MOZ032>034-039>042-045>050-055>058-069>072-060600-
...CENTRAL MISSOURI...

CITY           SKY/WX    TMP DP  RH WIND       PRES   REMARKS
COLUMBIA       CLOUDY    32  19  58 E7        30.29F WCI  26
JEFFERSON CITY CLOUDY    31  21  66 SE3       30.31F
ROLLA          CLOUDY    36  18  48 SE10      30.28F WCI  28
SEDALIA        CLOUDY    35  23  61 SE3       30.30S
WHITEMAN AFB   CLOUDY    35  24  64 SE3       30.27S
WARRENSBURG    CLOUDY    36  23  60 SE3       30.28F
OSAGE BEACH    PTCLDY    34  18  51 CALM      30.30S

$$
MOZ051-052-059>065-060600-
...EAST CENTRAL MISSOURI...

CITY           SKY/WX    TMP DP  RH WIND       PRES   REMARKS
ST LOUIS INTL  PTCLDY    31  18  58 SE3       30.33F
SPIRIT OF STL  CLEAR     26  21  81 CALM      30.33S
ST CHARLES     CLEAR     28  23  81 CALM      30.34S

$$
MOZ072>076-082>087-097>100-106>115-060600-
...SOUTH CENTRAL AND SOUTHEAST MISSOURI...

CITY           SKY/WX    TMP DP  RH WIND       PRES   REMARKS
CAPE GIRARDEAU CLEAR     29  25  85 E3        30.35S
FARMINGTON     CLEAR     27  21  78 CALM      30.33S
POPLAR BLUFF   CLEAR     34  25  69 S3        30.34S
WEST PLAINS    PTCLDY    38  14  37 SW6       30.31S

$$



USA.gov is the U.S. government's official web portal to all federal, state and local government web resources and services.